Flag for Germany Weather past 2 weeks in Weißenfels, Saxony-Anhalt, Germany

Now
55 °F

Overcast.


Feels Like: 54 °F
Forecast: 51 / 68 °F
Wind: 6 mph from South

Location: Leipzig-Schkeuditz

Current Time: Apr 25, 2015 at 9:31:08 AM

Latest Report: Apr 25, 2015 at 9:00 AM


Visibility: 19 mi

Pressure: 29.83 "Hg

Humidity: 52%

Dew point: 37 °F

Location of WeißenfelsLocation

Historic Weather in Weißenfels — Graph

°F

Weißenfels temperature yesterday

Maximum temperature yesterday: 69 °F (at 4:00 PM)
Minimum temperature yesterday: 40 °F (at 6:00 AM)
Average temperature yesterday: 55 °F

Past Weeks' High & Low Weather Summary

 TemperatureHumidityPressure
High73 °F (Apr 15, 4:00 PM)97% (Apr 23, 7:00 AM)30.45 "Hg (Apr 23, 7:00 AM)
Low34 °F (Apr 18, 7:00 AM)19% (Apr 21, 4:00 PM)29.83 "Hg (Apr 25, 8:00 AM)
Average51 °F59%30.17 "Hg
* Reported Apr 10 8:00 AM — Apr 25 8:00 AM, Weißenfels, Weather by CustomWeather, © 2015

Note: Actual official high and low records may vary slightly from our data, if they occured in-between our weather recording intervals... More about our weather records

Advertising

Weißenfels weather history for previous 24 hours

 ConditionsComfort  
Time TempWeatherWind HumidityBarometerVisibility
8:00 AM
Sat, Apr 25
52 °FOvercast.6 mph56%29.83 "Hg19 mi
7:00 AM48 °FPartly sunny.5 mph64%29.83 "Hg25 mi
6:00 AM47 °FScattered clouds.5 mph65%29.84 "Hg25 mi
3:00 AM49 °FClear.5 mph58%29.85 "Hg31 mi
1:00 AM53 °FPassing clouds.5 mph54%29.86 "Hg31 mi
12:00 AM54 °FPassing clouds.5 mph52%29.87 "Hg31 mi
10:00 PM
Fri, Apr 24
56 °FPassing clouds.3 mph47%29.86 "Hg31 mi
9:00 PM59 °FPassing clouds.3 mph42%29.87 "Hg31 mi
8:00 PM60 °FScattered clouds.3 mph41%29.86 "Hg31 mi
7:00 PM65 °FPassing clouds.5 mph33%29.86 "Hg31 mi
6:00 PM69 °FPassing clouds.6 mph30%29.86 "Hg28 mi
4:00 PM69 °FPassing clouds.6 mph31%29.89 "Hg25 mi
3:00 PM68 °FPassing clouds.5 mph31%29.90 "Hg22 mi
2:00 PM66 °FPassing clouds.6 mph31%29.93 "Hg22 mi
1:00 PM65 °FSunny.7 mph34%29.94 "Hg19 mi
12:00 PM63 °FSunny.7 mph38%29.96 "Hg19 mi
10:00 AM55 °FPassing clouds.6 mph54%29.98 "Hg12 mi
9:00 AM50 °FPassing clouds.5 mph65%29.99 "Hg11 mi
Weather by CustomWeather, © 2015

See weather overviewHow to use our weather pages